Location: Peterborough
(44.3091°N, 78.3197°W)
Time: 16:45:04
(UTC-04:00)

Transit 2A Rocket - Pass Details

Date: 25 March 2023
Orbit: 584 x 914 km, 66.7° (Epoch: 04 June)

Event Time Altitude Azimuth Distance (km) Brightness Sun altitude
Rises 14:21:57 0° 260° (W) 3,325 8.6 45.4°
Reaches altitude 10° 14:24:57 10° 276° (W) 2,453 7.9 45.2°
Maximum altitude 14:29:10 21° 324° (NW) 1,876 7.0 44.9°
Drops below altitude 10° 14:33:34 10° 11° (NNE) 2,578 7.4 44.5°
Sets 14:36:50 0° 28° (NNE) 3,546 8.0 44.3°
